H1 CPF 2 NER 2025 11 9 9 313 01 glonass135 H2 1600801 9135 41330 2025 11 9 0 0 0 2025 11 12 23 45 0 900 1 1 0 0 0 1 H9 10 0 60988 0.00000 0 -5372107.620 22924266.778 -9735197.957 10 0 60988 900.00000 0 -5215301.292 21544309.024 -12561787.533 10 0 60988 1800.00000 0 -5182894.754 19824099.732 -15143514.396 10 0 60988 2700.00000 0 -5317138.687 17808987.964 -17430090.200 10 0 60988 3600.00000 0 -5651173.232 15553779.043 -19377013.476 10 0 60988 4500.00000 0 -6207424.019 13120585.145 -20946439.976 10 0 60988 5400.00000 0 -6996464.470 10576384.617 -22107918.729 10 0 60988 6300.00000 0 -8016392.893 7990393.036 -22838979.648 10 0 60988 7200.00000 0 -9252750.688 5431356.599 -23125561.831 10 0 60988 8100.00000 0 -10678984.902 2964881.131 -22962275.092 10 0 60988 9000.00000 0 -12257435.245 650907.939 -22352490.704 10 0 60988 9900.00000 0 -13940803.521 -1458558.973 -21308260.721 10 0 60988 10800.00000 0 -15674043.300 -3321380.910 -19850068.579 10 0 60988 11700.00000 0 -17396590.129 -4906789.145 -18006416.856 10 0 60988 12600.00000 0 -19044838.529 -6196405.703 -15813261.093 10 0 60988 13500.00000 0 -20554761.953 -7184740.148 -13313301.404 10 0 60988 14400.00000 0 -21864566.180 -7879144.279 -10555146.134 10 0 60988 15300.00000 0 -22917265.379 -8299229.166 -7592364.203 10 0 60988 16200.00000 0 -23663073.617 -8475771.371 -4482444.670 10 0 60988 17100.00000 0 -24061512.409 -8449156.256 -1285683.748 10 0 60988 18000.00000 0 -24083146.877 -8267425.375 1935979.312 10 0 60988 18900.00000 0 -23710878.656 -7984011.150 5120155.183 10 0 60988 19800.00000 0 -22940742.139 -7655254.718 8205203.681 10 0 60988 20700.00000 0 -21782171.227 -7337811.613 11131416.621 10 0 60988 21600.00000 0 -20257725.661 -7086054.231 13842162.232 10 0 60988 22500.00000 0 -18402288.139 -6949580.000 16284969.956 10 0 60988 23400.00000 0 -16261765.206 -6970929.536 18412535.609 10 0 60988 24300.00000 0 -13891345.036 -7183610.333 20183628.548 10 0 60988 25200.00000 0 -11353383.341 -7610508.842 21563884.228 10 0 60988 26100.00000 0 -8715003.719 -8262757.830 22526467.614 10 0 60988 27000.00000 0 -6045510.431 -9139107.251 23052595.103 10 0 60988 27900.00000 0 -3413719.232 -10225826.204 23131905.045 10 0 60988 28800.00000 0 -885315.497 -11497141.765 22762669.372 10 0 60988 29700.00000 0 1479652.091 -12916198.373 21951841.593 10 0 60988 30600.00000 0 3629039.196 -14436499.808 20714939.082 10 0 60988 31500.00000 0 5520541.150 -16003775.608 19075760.545 10 0 60988 32400.00000 0 7123215.581 -17558195.705 17065942.507 10 0 60988 33300.00000 0 8418528.725 -19036842.032 14724361.743 10 0 60988 34200.00000 0 9400881.320 -20376334.333 12096393.710 10 0 60988 35100.00000 0 10077591.604 -21515500.222 9233040.109 10 0 60988 36000.00000 0 10468335.732 -22397976.828 6189941.647 10 0 60988 36900.00000 0 10604068.947 -22974633.515 3026294.885 10 0 60988 37800.00000 0 10525473.146 -23205712.101 -196305.581 10 0 60988 38700.00000 0 10280996.925 -23062592.559 -3415076.380 10 0 60988 39600.00000 0 9924571.978 -22529107.810 -6567281.299 10 0 60988 40500.00000 0 9513103.902 -21602350.355 -9591468.392 10 0 60988 41400.00000 0 9103845.327 -20292935.290 -12428682.540 10 0 60988 42300.00000 0 8751764.534 -18624707.509 -15023628.192 10 0 60988 43200.00000 0 8507022.792 -16633904.908 -17325758.237 10 0 60988 44100.00000 0 8412668.901 -14367812.664 -19290266.703 10 0 60988 45000.00000 0 8502649.794 -11882965.434 -20878965.214 10 0 60988 45900.00000 0 8800222.228 -9242973.440 -22061025.909 10 0 60988 46800.00000 0 9316833.090 -6516064.104 -22813576.556 10 0 60988 47700.00000 0 10051515.578 -3772442.646 -23122136.814 10 0 60988 48600.00000 0 10990826.371 -1081582.160 -22980888.055 10 0 60988 49500.00000 0 12109325.789 1490443.847 -22392772.533 10 0 60988 50400.00000 0 13370579.966 3883475.772 -21369421.092 10 0 60988 51300.00000 0 14728642.078 6045525.364 -19930911.983 10 0 60988 52200.00000 0 16129949.679 7934683.822 -18105366.461 10 0 60988 53100.00000 0 17515557.851 9520602.947 -15928389.945 10 0 60988 54000.00000 0 18823614.077 10785489.903 -13442370.309 10 0 60988 54900.00000 0 19991970.848 11724576.611 -10695647.476 10 0 60988 55800.00000 0 20960826.497 12346046.681 -7741570.792 10 0 60988 56700.00000 0 21675283.826 12670425.435 -4637462.701 10 0 60988 57600.00000 0 22087719.718 12729460.829 -1443508.798 10 0 60988 58500.00000 0 22159866.991 12564544.026 1778404.284 10 0 60988 59400.00000 0 21864521.871 12224737.376 4965880.973 10 0 60988 60300.00000 0 21186806.097 11764493.548 8057216.215 10 0 60988 61200.00000 0 20124931.233 11241162.116 10992579.679 10 0 60988 62100.00000 0 18690433.298 10712388.430 13715162.590 10 0 60988 63000.00000 0 16907867.719 10233513.755 16172265.961 10 0 60988 63900.00000 0 14813976.697 9855085.431 18316310.124 10 0 60988 64800.00000 0 12456362.723 9620581.041 20105747.112 10 0 60988 65700.00000 0 9891722.017 9564441.680 21505859.202 10 0 60988 66600.00000 0 7183709.721 9710496.664 22489428.933 10 0 60988 67500.00000 0 4400523.603 10070845.923 23037268.194 10 0 60988 68400.00000 0 1612304.626 10645247.595 23138596.320 10 0 60988 69300.00000 0 -1111539.626 11421037.607 22791259.612 10 0 60988 70200.00000 0 -3704979.243 12373586.183 22001787.394 10 0 60988 71100.00000 0 -6107865.575 13467273.992 20785282.422 10 0 60988 72000.00000 0 -8268190.966 14656949.002 19165146.378 10 0 60988 72900.00000 0 -10144011.067 15889804.847 17172644.137 10 0 60988 73800.00000 0 -11704949.696 17107603.504 14846313.596 10 0 60988 74700.00000 0 -12933223.095 18249150.029 12231230.920 10 0 60988 75600.00000 0 -13824140.232 19252915.843 9378144.213 10 0 60988 76500.00000 0 -14386057.684 20059699.997 6342491.507 10 0 60988 77400.00000 0 -14639790.551 20615215.476 3183321.818 10 0 60988 78300.00000 0 -14617504.104 20872490.097 -37859.567 10 0 60988 79200.00000 0 -14361133.178 20793978.895 -3258298.449 10 0 60988 80100.00000 0 -13920396.779 20353296.804 -6415226.992 10 0 60988 81000.00000 0 -13350492.979 19536496.488 -9447101.421 10 0 60988 81900.00000 0 -12709573.151 18342835.559 -12294816.409 10 0 60988 82800.00000 0 -12056104.129 16784999.355 -14902870.838 10 0 60988 83700.00000 0 -11446231.744 14888768.879 -17220460.823 10 0 60988 84600.00000 0 -10931258.888 12692147.328 -19202477.581 10 0 60988 85500.00000 0 -10555346.148 10243981.802 -20810389.979 10 0 60989 0.00000 0 -10353533.126 7602138.526 -22012994.235 10 0 60989 900.00000 0 -10350164.379 4831306.964 -22787016.909 10 0 60989 1800.00000 0 -10557786.609 2000528.749 -23117558.492 10 0 60989 2700.00000 0 -10976562.759 -819449.736 -22998371.945 10 0 60989 3600.00000 0 -11594227.191 -3558887.162 -22431970.144 10 0 60989 4500.00000 0 -12386582.638 -6151708.127 -21429561.971 10 0 60989 5400.00000 0 -13318516.905 -8538004.830 -20010819.312 10 0 60989 6300.00000 0 -14345495.445 -10666276.582 -18203480.518 10 0 60989 7200.00000 0 -15415466.085 -12495315.495 -16042798.942 10 0 60989 8100.00000 0 -16471095.059 -13995661.806 -13570847.980 10 0 60989 9000.00000 0 -17452239.904 -15150570.449 -10835696.661 10 0 60989 9900.00000 0 -18298555.065 -15956450.910 -7890472.153 10 0 60989 10800.00000 0 -18952120.770 -16422764.424 -4792327.590 10 0 60989 11700.00000 0 -19359985.016 -16571385.091 -1601335.243 10 0 60989 12600.00000 0 -19476512.299 -16435453.640 1620673.588 10 0 60989 13500.00000 0 -19265441.005 -16057773.533 4811299.771 10 0 60989 14400.00000 0 -18701563.569 -15488817.845 7908776.029 10 0 60989 15300.00000 0 -17771959.318 -14784431.245 10853152.469 10 0 60989 16200.00000 0 -16476728.447 -14003323.783 13587445.798 10 0 60989 17100.00000 0 -14829196.211 -13204461.473 16058730.931 10 0 60989 18000.00000 0 -12855578.175 -12444462.733 18219154.840 10 0 60989 18900.00000 0 -10594119.490 -11775109.212 20026854.086 10 0 60989 19800.00000 0 -8093742.602 -11241074.745 21446759.295 10 0 60989 20700.00000 0 -5412257.899 -10877967.074 22451271.750 10 0 60989 21600.00000 0 -2614209.639 -10710764.140 23020799.628 10 0 60989 22500.00000 0 231555.561 -10752710.572 23144143.661 10 0 60989 23400.00000 0 3054498.885 -11004721.168 22818724.570 10 0 60989 24300.00000 0 5785071.714 -11455317.360 22050647.192 10 0 60989 25200.00000 0 8357360.597 -12081100.708 20854599.029 10 0 60989 26100.00000 0 10711586.058 -12847745.178 19253583.776 10 0 60989 27000.00000 0 12796352.036 -13711468.253 17278493.374 10 0 60989 27900.00000 0 14570552.503 -14620920.621 14967525.205 10 0 60989 28800.00000 0 16004855.462 -15519416.192 12365454.159 10 0 60989 29700.00000 0 17082701.805 -16347409.289 9522772.404 10 0 60989 30600.00000 0 17800776.514 -17045114.708 6494712.614 10 0 60989 31500.00000 0 18168931.804 -17555159.576 3340173.302 10 0 60989 32400.00000 0 18209565.027 -17825153.886 120567.276 10 0 60989 33300.00000 0 17956477.491 -17810069.442 -3101383.702 10 0 60989 34200.00000 0 17453262.683 -17474324.697 -6262883.434 10 0 60989 35100.00000 0 16751292.804 -16793485.259 -9302299.469 10 0 60989 36000.00000 0 15907389.956 -15755506.149 -12160379.245 10 0 60989 36900.00000 0 14981281.945 -14361461.604 -14781418.816 10 0 60989 37800.00000 0 14032951.965 -12625730.201 -17114359.976 10 0 60989 38700.00000 0 13119995.803 -10575626.550 -19113793.277 10 0 60989 39600.00000 0 12295099.618 -8250494.555 -20740846.626 10 0 60989 40500.00000 0 11603745.813 -5700300.194 -21963941.906 10 0 60989 41400.00000 0 11082244.315 -2983782.963 -22759405.041 10 0 60989 42300.00000 0 10756172.280 -166243.702 -23111918.160 10 0 60989 43200.00000 0 10639287.433 2682938.484 -23014805.936 10 0 60989 44100.00000 0 10732959.852 5492956.438 -22470151.549 10 0 60989 45000.00000 0 11026144.829 8194281.914 -21488741.180 10 0 60989 45900.00000 0 11495896.490 10721317.031 -20089839.221 10 0 60989 46800.00000 0 12108399.057 13014880.685 -18300799.624 10 0 60989 47700.00000 0 12820470.967 15024427.675 -16156521.825 10 0 60989 48600.00000 0 13581477.379 16709909.762 -13698762.564 10 0 60989 49500.00000 0 14335569.677 18043203.080 -10975317.485 10 0 60989 50400.00000 0 15024157.139 19009044.497 -8039088.804 10 0 60989 51300.00000 0 15588506.477 19605440.080 -4947057.339 10 0 60989 52200.00000 0 15972359.896 19843530.776 -1759178.867 10 0 60989 53100.00000 0 16124461.734 19746922.943 1462773.876 10 0 60989 54000.00000 0 16000887.829 19350513.437 4656401.399 10 0 60989 54900.00000 0 15567080.089 18698859.826 7759877.274 10 0 60989 55800.00000 0 14799501.190 17844164.856 10713134.905 10 0 60989 56700.00000 0 13686840.061 16843960.098 13459019.069 10 0 60989 57600.00000 0 12230717.529 15758585.779 15944380.874 10 0 60989 58500.00000 0 10445862.031 14648572.046 18121095.904 10 0 60989 59400.00000 0 8359747.097 13572030.655 19946986.929 10 0 60989 60300.00000 0 6011704.306 12582165.526 21386634.284 10 0 60989 61200.00000 0 3451546.899 11725005.590 22412059.058 10 0 60989 62100.00000 0 737759.198 11037454.156 23003266.438 10 0 60989 63000.00000 0 -2064675.241 10545736.089 23148638.929 10 0 60989 63900.00000 0 -4886718.820 10264307.821 22845171.632 10 0 60989 64800.00000 0 -7657899.138 10195276.268 22098544.425 10 0 60989 65700.00000 0 -10308995.440 10328351.830 20923028.610 10 0 60989 66600.00000 0 -12774682.103 10641338.634 19341228.455 10 0 60989 67500.00000 0 -14996020.212 11101142.761 17383661.058 10 0 60989 68400.00000 0 -16922693.917 11665257.470 15088180.963 10 0 60989 69300.00000 0 -18514898.159 12283664.104 12499259.120 10 0 60989 70200.00000 0 -19744798.419 12901069.381 9667128.849 10 0 60989 71100.00000 0 -20597500.599 13459385.040 6646814.434 10 0 60989 72000.00000 0 -21071489.506 13900344.782 3497060.801 10 0 60989 72900.00000 0 -21178516.782 14168147.035 279185.240 10 0 60989 73800.00000 0 -20942942.544 14212010.272 -2944125.893 10 0 60989 74700.00000 0 -20400558.456 13988530.922 -6110050.882 10 0 60989 75600.00000 0 -19596942.299 13463741.975 -9156871.304 10 0 60989 76500.00000 0 -18585414.419 12614783.069 -12025189.889 10 0 60989 77400.00000 0 -17424683.641 11431109.449 -14659102.173 10 0 60989 78300.00000 0 -16176283.565 9915187.062 -17007297.679 10 0 60989 79200.00000 0 -14901909.052 8082643.157 -19024068.034 10 0 60989 80100.00000 0 -13660766.718 5961865.214 -20670201.584 10 0 60989 81000.00000 0 -12507052.273 3593064.607 -21913746.828 10 0 60989 81900.00000 0 -11487661.639 1026844.201 -22730629.935 10 0 60989 82800.00000 0 -10640232.325 -1677669.964 -23105114.848 10 0 60989 83700.00000 0 -9991597.034 -4455054.548 -23030097.866 10 0 60989 84600.00000 0 -9556713.523 -7236079.195 -22507232.029 10 0 60989 85500.00000 0 -9338114.322 -9950357.323 -21546879.994 10 0 60990 0.00000 0 -9325897.717 -12529046.954 -20167897.626 10 0 60990 900.00000 0 -9498258.564 -14907491.037 -18397252.710 10 0 60990 1800.00000 0 -9822534.761 -17027684.808 -16269489.057 10 0 60990 2700.00000 0 -10256723.669 -18840473.291 -13826044.688 10 0 60990 3600.00000 0 -10751403.347 -20307385.497 -11114439.617 10 0 60990 4500.00000 0 -11251976.607 -21402032.074 -8187348.749 10 0 60990 5400.00000 0 -11701142.721 -22111009.797 -5101578.167 10 0 60990 6300.00000 0 -12041492.358 -22434277.132 -1916964.718 10 0 60990 7200.00000 0 -12218116.410 -22384987.032 1304779.871 10 0 60990 8100.00000 0 -12181119.075 -21988785.654 4501258.185 10 0 60990 9000.00000 0 -11887929.741 -21282607.672 7610587.074 10 0 60990 9900.00000 0 -11305316.757 -20313019.601 10572585.653 10 0 60990 10800.00000 0 -10411018.693 -19134180.983 13329929.136 10 0 60990 11700.00000 0 -9194924.561 -17805508.866 15829247.114 10 0 60990 12600.00000 0 -7659753.179 -16389142.997 18022145.941 10 0 60990 13500.00000 0 -5821202.397 -14947317.086 19866136.550 10 0 60990 14400.00000 0 -3707560.701 -13539745.179 21325450.704 10 0 60990 15300.00000 0 -1358795.690 -12221131.427 22371730.716 10 0 60990 16200.00000 0 1174844.709 -11038906.368 22984579.889 10 0 60990 17100.00000 0 3834662.413 -10031283.604 23151963.273 10 0 60990 18000.00000 0 6555697.116 -9225717.624 22870450.788 10 0 60990 18900.00000 0 9269183.461 -8637827.226 22145297.466 10 0 60990 19800.00000 0 11905177.510 -8270829.877 20990358.186 10 0 60990 20700.00000 0 14395245.093 -8115511.426 19427837.251 10 0 60990 21600.00000 0 16675101.411 -8150733.361 17487876.029 10 0 60990 22500.00000 0 18687092.650 -8344457.400 15207984.982 10 0 60990 23400.00000 0 20382416.133 -8655245.309 12632329.489 10 0 60990 24300.00000 0 21722985.802 -9034171.588 9810881.995 10 0 60990 25200.00000 0 22682864.161 -9427068.688 6798455.949 10 0 60990 26100.00000 0 23249199.573 -9777009.813 3653639.884 10 0 60990 27000.00000 0 23422628.546 -10026923.617 437652.449 10 0 60990 27900.00000 0 23217125.249 -10122228.902 -2786858.733 10 0 60990 28800.00000 0 22659304.124 -10013376.036 -5957049.840 10 0 60990 29700.00000 0 21787204.972 -9658185.460 -9011119.847 10 0 60990 30600.00000 0 20648612.244 -9023882.108 -11889529.997 10 0 60990 31500.00000 0 19298980.363 -8088737.548 -14536178.287 10 0 60990 32400.00000 0 17799053.853 -6843248.518 -16899504.661 10 0 60990 33300.00000 0 16212284.065 -5290800.557 -18933504.193 10 0 60990 34200.00000 0 14602152.738 -3447787.598 -20598627.705 10 0 60990 35100.00000 0 13029516.319 -1343181.801 -21862552.004 10 0 60990 36000.00000 0 11550083.515 982428.662 -22700804.826 10 0 60990 36900.00000 0 10212132.431 3478293.513 -23097232.865 10 0 60990 37800.00000 0 9054562.864 6085384.945 -23044304.588 10 0 60990 38700.00000 0 8105364.648 8738633.908 -22543243.010 10 0 60990 39600.00000 0 7380564.921 11369424.551 -21603986.970 10 0 60990 40500.00000 0 6883696.701 13908242.845 -20244982.796 10 0 60990 41400.00000 0 6605808.981 16287369.263 -18492811.465 10 0 60990 42300.00000 0 6526015.787 18443503.914 -16381659.403 10 0 60990 43200.00000 0 6612559.005 20320215.636 -13952643.959 10 0 60990 44100.00000 0 6824338.454 21870114.214 -11253007.185 10 0 60990 45000.00000 0 7112843.218 23056656.556 -8335193.985 10 0 60990 45900.00000 0 7424401.803 23855513.130 -5255832.713 10 0 60990 46800.00000 0 7702655.560 24255439.313 -2074638.043 10 0 60990 47700.00000 0 7891150.799 24258616.923 1146742.679 10 0 60990 48600.00000 0 7935940.319 23880453.208 4345917.541 10 0 60990 49500.00000 0 7788084.965 23148846.998 7460950.027 10 0 60990 50400.00000 0 7405950.167 22102953.656 10431548.151 10 0 60990 51300.00000 0 6757201.113 20791501.074 13200220.531 10 0 60990 52200.00000 0 5820412.815 19270727.224 15713377.904 10 0 60990 53100.00000 0 4586227.284 17602025.218 17922359.753 10 0 60990 54000.00000 0 3058008.755 15849393.592 19784367.194 10 0 60990 54900.00000 0 1251968.468 14076797.358 21263285.108 10 0 60990 55800.00000 0 -803247.695 12345548.856 22330378.373 10 0 60990 56700.00000 0 -3067493.447 10711816.560 22964849.382 10 0 60990 57600.00000 0 -5490541.605 9224364.715 23154246.301 10 0 60990 58500.00000 0 -8013932.193 7922617.321 22894714.015 10 0 60990 59400.00000 0 -10573174.792 6835126.783 22191082.373 10 0 60990 60300.00000 0 -13100215.869 5978511.052 21056788.998 10 0 60990 61200.00000 0 -15526070.414 5356903.969 19513636.864 10 0 60990 62100.00000 0 -17783509.850 4961942.377 17591389.739 10 0 60990 63000.00000 0 -19809695.110 4773291.284 15327211.650 10 0 60990 63900.00000 0 -21548645.298 4759685.808 12764959.660 10 0 60990 64800.00000 0 -22953438.431 4880446.766 9954342.275 10 0 60990 65700.00000 0 -23988051.354 5087406.380 6949958.860 10 0 60990 66600.00000 0 -24628760.527 5327162.795 3810238.207 10 0 60990 67500.00000 0 -24865043.582 5543567.559 596296.990 10 0 60990 68400.00000 0 -24699942.563 5680339.741 -2629259.146 10 0 60990 69300.00000 0 -24149872.617 5683694.424 -5803567.393 10 0 60990 70200.00000 0 -23243883.706 5504872.337 -8864747.078 10 0 60990 71100.00000 0 -22022406.443 5102461.329 -11753120.699 10 0 60990 72000.00000 0 -20535535.428 4444409.256 -14412391.225 10 0 60990 72900.00000 0 -18840923.354 3509641.090 -16790751.237 10 0 60990 73800.00000 0 -17001375.775 2289210.206 -18841901.120 10 0 60990 74700.00000 0 -15082249.092 786933.904 -20525955.639 10 0 60990 75600.00000 0 -13148762.354 -980514.499 -21810220.915 10 0 60990 76500.00000 0 -11263336.738 -2984061.447 -22669826.805 10 0 60990 77400.00000 0 -9483074.777 -5183217.746 -23088202.828 10 0 60990 78300.00000 0 -7857485.006 -7527550.675 -23057389.256 10 0 60990 79200.00000 0 -6426546.623 -9958581.751 -22578178.303 10 0 60990 80100.00000 0 -5219194.022 -12412030.572 -21660083.833 10 0 60990 81000.00000 0 -4252282.881 -14820310.885 -20321141.302 10 0 60990 81900.00000 0 -3530078.994 -17115174.795 -18587542.866 10 0 60990 82800.00000 0 -3044288.932 -19230395.058 -16493115.678 10 0 60990 83700.00000 0 -2774628.838 -21104374.179 -14078654.248 10 0 60990 84600.00000 0 -2689905.213 -22682572.359 -11391120.383 10 0 60990 85500.00000 0 -2749560.257 -23919654.013 -8482726.640 10 0 60991 0.00000 0 -2905615.091 -24781264.547 -5409921.566 10 0 60991 900.00000 0 -3104927.966 -25245364.954 -2232294.782 10 0 60991 1800.00000 0 -3291671.303 -25303068.825 988572.789 10 0 60991 2700.00000 0 -3409923.123 -24958949.684 4190296.989 10 0 60991 3600.00000 0 -3406263.463 -24230805.705 7310890.153 10 0 60991 4500.00000 0 -3232266.625 -23148893.075 10289951.382 10 0 60991 5400.00000 0 -2846784.630 -21754660.490 13069824.822 10 0 60991 6300.00000 0 -2217926.030 -20099037.793 15596704.416 10 0 60991 7200.00000 0 -1324646.976 -18240349.948 17821664.705 10 0 60991 8100.00000 0 -157887.451 -16241942.773 19701598.768 10 0 60991 9000.00000 0 1278795.645 -14169618.439 21200046.154 10 0 60991 9900.00000 0 2969126.277 -12088986.464 22287895.619 10 0 60991 10800.00000 0 4884543.836 -10062839.243 22943949.674 10 0 60991 11700.00000 0 6985158.449 -8148660.134 23155340.343 10 0 60991 12600.00000 0 9221189.567 -6396366.827 22917787.930 10 0 60991 13500.00000 0 11534830.380 -4846383.140 22235697.262 10 0 60991 14400.00000 0 13862462.878 -3528119.148 21122088.591 10 0 60991 15300.00000 0 16137133.434 -2458922.977 19598363.169 10 0 60991 16200.00000 0 18291187.491 -1643548.245 17693906.485 10 0 60991 17100.00000 0 20258954.655 -1074159.922 15445535.146 10 0 60991 18000.00000 0 21979372.566 -730878.952 12896796.570 10 0 60991 18900.00000 0 23398439.688 -582843.321 10097133.658 10 0 60991 19800.00000 0 24471393.604 -589741.259 7100929.636 10 0 60991 20700.00000 0 25164522.265 -703751.977 3966451.142 10 0 60991 21600.00000 0 25456530.666 -871811.537 754710.135 10 0 60991 22500.00000 0 25339404.041 -1038107.156 -2471732.723 10 0 60991 23400.00000 0 24818729.860 -1146692.956 -5649998.790 10 0 60991 24300.00000 0 23913464.146 -1144114.612 -8718130.926 10 0 60991 25200.00000 0 22655151.392 -981929.664 -11616315.996 10 0 60991 26100.00000 0 21086630.983 -619014.632 -14288064.873 10 0 60991 27000.00000 0 19260285.068 -23559.190 -16681325.472 10 0 60991 27900.00000 0 17235902.489 825338.710 -18749505.918 10 0 60991 28800.00000 0 15078249.687 1936545.672 -20452387.068 10 0 60991 29700.00000 0 12854451.741 3306282.206 -21756906.248 10 0 60991 30600.00000 0 10631294.356 4918054.969 -22637797.037 10 0 60991 31500.00000 0 8472560.519 6743134.989 -23078073.109 10 0 60991 32400.00000 0 6436513.451 8741561.726 -23069347.535 10 0 60991 33300.00000 0 4573630.697 10863630.641 -22611982.379 10 0 60991 34200.00000 0 2924683.102 13051801.630 -21715066.785 10 0 60991 35100.00000 0 1519237.396 15242948.191 -20396225.167 10 0 60991 36000.00000 0 374642.923 17370853.175 -18681260.238 10 0 60991 36900.00000 0 -504457.437 19368846.824 -16603638.800 10 0 60991 37800.00000 0 -1126074.208 21172477.218 -14203830.993 10 0 60991 38700.00000 0 -1510280.921 22722102.118 -11528516.401 10 0 60991 39600.00000 0 -1688113.455 23965294.665 -8629672.850 10 0 60991 40500.00000 0 -1700007.454 24858963.404 -5563565.770 10 0 60991 41400.00000 0 -1593841.147 25371099.135 -2389657.776 10 0 60991 42300.00000 0 -1422667.148 25482076.677 830540.435 10 0 60991 43200.00000 0 -1242229.493 25185458.266 4034655.871 10 0 60991 44100.00000 0 -1108370.803 24488265.977 7160653.157 10 0 60991 45000.00000 0 -1074438.798 23410712.533 10148025.855 10 0 60991 45900.00000 0 -1188801.139 21985402.220 12938956.874 10 0 60991 46800.00000 0 -1492572.868 20256035.354 15479426.394 10 0 60991 47700.00000 0 -2017651.809 18275670.103 17720246.790 10 0 60991 48600.00000 0 -2785144.427 16104613.418 19618005.590 10 0 60991 49500.00000 0 -3804248.563 13808027.953 21135899.197 10 0 60991 50400.00000 0 -5071640.655 11453353.310 22244442.073 10 0 60991 51300.00000 0 -6571394.357 9107647.479 22922038.317 10 0 60991 52200.00000 0 -8275435.720 6834957.554 23155404.864 10 0 60991 53100.00000 0 -10144518.035 4693827.769 22939838.025 10 0 60991 54000.00000 0 -12129677.983 2735047.331 22279317.700 10 0 60991 54900.00000 0 -14174114.816 999731.012 21186446.315 10 0 60991 55800.00000 0 -16215416.376 -482188.000 19682222.375 10 0 60991 56700.00000 0 -18188041.029 -1692990.176 17795651.492 10 0 60991 57600.00000 0 -20025953.254 -2627683.346 15563200.721 10 0 60991 58500.00000 0 -21665303.525 -3293976.064 13028105.217 10 0 60991 59400.00000 0 -23047040.376 -3711711.308 10239539.239 10 0 60991 60300.00000 0 -24119344.684 -3911783.944 7251666.548 10 0 60991 61200.00000 0 -24839782.849 -3934587.408 4122588.111 10 0 60991 62100.00000 0 -25177086.919 -3828055.432 913207.562 10 0 60991 63000.00000 0 -25112485.071 -3645382.223 -2313963.013 10 0 60991 63900.00000 0 -24640524.779 -3442518.767 -5496032.655 10 0 60991 64800.00000 0 -23769352.554 -3275552.811 -8570971.137 10 0 60991 65700.00000 0 -22520437.479 -3198085.428 -11478832.873 10 0 60991 66600.00000 0 -20927749.641 -3258717.317 -14162939.579 10 0 60991 67500.00000 0 -19036428.046 -3498753.320 -16570997.127 10 0 60991 68400.00000 0 -16900994.520 -3950224.133 -18656123.625 10 0 60991 69300.00000 0 -14583189.441 -4634310.372 -20377767.799 10 0 60991 70200.00000 0 -12149521.082 -5560236.664 -21702499.428 10 0 60991 71100.00000 0 -9668632.203 -6724683.079 -22604656.497 10 0 60991 72000.00000 0 -7208594.859 -8111738.972 -23066836.936 10 0 60991 72900.00000 0 -4834246.829 -9693401.078 -23080226.179 10 0 60991 73800.00000 0 -2604680.760 -11430594.650 -22644755.195 10 0 60991 74700.00000 0 -570990.124 -13274674.326 -21769087.046 10 0 60991 75600.00000 0 1225635.258 -15169341.333 -20470433.375 10 0 60991 76500.00000 0 2755386.465 -17052896.399 -18774205.452 10 0 60991 77400.00000 0 4000826.027 -18860733.773 -16713507.501 10 0 60991 78300.00000 0 4957352.886 -20527972.031 -14328482.889 10 0 60991 79200.00000 0 5633124.970 -21992111.807 -11665526.471 10 0 60991 80100.00000 0 6048445.130 -23195609.705 -8776378.753 10 0 60991 81000.00000 0 6234638.579 -24088261.368 -5717119.710 10 0 60991 81900.00000 0 6232470.981 -24629294.799 -2547081.796 10 0 60991 82800.00000 0 6090175.216 -24789087.220 672296.820 10 0 60991 83700.00000 0 5861170.994 -24550434.517 3878656.799 10 0 60991 84600.00000 0 5601573.881 -23909320.980 7009917.453 10 0 60991 85500.00000 0 5367598.883 -22875157.739 10005469.078 99